Mobile, AL

7:44 AM CST on February 08, 2016 (GMT -0600)
Mobile Downtown

Weather History for KBFM - August, 2013

Change the Weather History Date:

Thursday, August 1, 2013

  Actual Average Record
Temperature  
Mean Temperature 82 °F -  
Max Temperature 93 °F 87 °F 100 °F (2010)
Min Temperature 73 °F 72 °F 70 °F (1997)
Cooling Degree Days 17    
Growing Degree Days 32 (Base 50)    
Moisture  
Dew Point 74 °F    
Average Humidity 85    
Maximum Humidity 97    
Minimum Humidity 54    
Precipitation  
Precipitation 2.84 in - - ()
Sea Level Pressure  
Sea Level Pressure 29.98 in    
Wind  
Wind Speed 4 mph (West)    
Max Wind Speed 20 mph    
Max Gust Speed 30 mph    
Visibility 8 miles    
Events Fog , Rain , Thunderstorm    
Averages and records for this station are not official NWS values.
T = Trace of Precipitation, MM = Missing Value Source: NWS Daily Summary

Daily Weather History Graph

Daily Weather History Graph

Search for Another Location

Airport or City:

Trip Planner

Search our weather history database for the weather conditions in past years. The results will help you decide how hot, cold, wet, or windy it might be!

Date:

Astronomy

Aug. 01, 2013 Rise Set
Actual Time 6:10 AM CDT 7:46 PM CDT
Civil Twilight 5:44 AM CDT 8:12 PM CDT
Nautical Twilight 5:12 AM CDT 8:43 PM CDT
Astronomical Twilight 4:39 AM CDT 9:16 PM CDT
Moon 1:48 AM CDT (8/1) 3:52 PM CDT (8/1)
Length of Visible Light 14h 28m
Length of Day
13h 36m
Waning Crescent, 23% of the Moon is Illuminated
Aug 1
Waning Crescent
Aug 6
New
Aug 14
First Quarter
Aug 20
Full
Aug 28
Last Quarter

Hourly Weather History & Observations

Time (CDT) Temp. Heat Index Dew Point Humidity Pressure Visibility Wind Dir Wind Speed Gust Speed Precip Events Conditions
12:53 AM 80.1 °F 85.8 °F 77.0 °F 90% 30.01 in 10.0 mi Calm Calm - N/A   Partly Cloudy
1:53 AM 80.1 °F 85.8 °F 77.0 °F 90% 29.99 in 10.0 mi Calm Calm - N/A   Clear
2:53 AM 81.0 °F 87.9 °F 77.0 °F 88% 29.98 in 10.0 mi SW 3.5 mph - N/A   Clear
3:14 AM 80.6 °F 87.1 °F 77.0 °F 89% 29.98 in 10.0 mi WSW 3.5 mph - N/A   Clear
3:53 AM 81.0 °F 87.9 °F 77.0 °F 88% 29.97 in 10.0 mi Calm Calm - N/A   Clear
4:53 AM 80.1 °F 85.8 °F 77.0 °F 90% 29.99 in 10.0 mi WNW 4.6 mph - N/A   Clear
5:53 AM 80.1 °F 85.8 °F 77.0 °F 90% 29.99 in 10.0 mi West 3.5 mph - N/A   Scattered Clouds
6:53 AM 81.0 °F 87.9 °F 77.0 °F 88% 30.01 in 10.0 mi West 5.8 mph - N/A   Scattered Clouds
7:53 AM 82.0 °F 89.4 °F 75.9 °F 82% 30.02 in 10.0 mi Variable 5.8 mph - N/A   Scattered Clouds
8:53 AM 82.0 °F 89.4 °F 75.9 °F 82% 30.02 in 10.0 mi West 5.8 mph - N/A   Mostly Cloudy
9:53 AM 84.0 °F 93.7 °F 77.0 °F 79% 30.01 in 10.0 mi West 4.6 mph - N/A   Mostly Cloudy
10:53 AM 88.0 °F 98.5 °F 75.9 °F 67% 30.00 in 10.0 mi Variable 5.8 mph - N/A   Scattered Clouds
11:53 AM 91.0 °F 99.3 °F 73.0 °F 55% 30.00 in 10.0 mi NW 9.2 mph 16.1 mph N/A   Mostly Cloudy
12:53 PM 91.9 °F 100.7 °F 73.0 °F 54% 29.98 in 10.0 mi WNW 4.6 mph - N/A   Mostly Cloudy
1:53 PM 91.0 °F 101.6 °F 75.0 °F 59% 29.96 in 10.0 mi Variable 5.8 mph - N/A   Mostly Cloudy
2:33 PM 87.8 °F 97.6 °F 75.2 °F 66% 29.94 in 10.0 mi SE 11.5 mph - N/A Thunderstorm Thunderstorm
2:53 PM 77.0 °F - 73.9 °F 90% 30.01 in 1.0 mi West 12.7 mph 23.0 mph 0.92 in Rain , Thunderstorm Heavy Thunderstorms and Rain
3:00 PM 75.2 °F - 73.4 °F 94% 29.97 in 0.2 mi SW 9.2 mph 23.0 mph 0.78 in Fog , Rain , Thunderstorm Heavy Thunderstorms and Rain
3:05 PM 75.2 °F - 71.6 °F 89% 29.97 in 0.2 mi SE 5.8 mph - 0.91 in Fog , Rain , Thunderstorm Heavy Thunderstorms and Rain
3:12 PM 75.2 °F - 71.6 °F 89% 29.98 in 2.0 mi Calm Calm - 0.93 in Rain , Thunderstorm Heavy Thunderstorms and Rain
3:26 PM 77.0 °F - 73.4 °F 89% 29.95 in 2.0 mi East 5.8 mph - 1.07 in Rain , Thunderstorm Heavy Thunderstorms and Rain
3:38 PM 77.0 °F - 73.4 °F 89% 29.95 in 10.0 mi Calm Calm - 1.09 in Rain Light Rain
3:53 PM 78.1 °F - 75.0 °F 90% 29.94 in 10.0 mi SSW 5.8 mph - 1.09 in   Partly Cloudy
4:53 PM 78.1 °F - 73.9 °F 87% 29.99 in 5.0 mi NNE 18.4 mph 29.9 mph 0.02 in Rain Rain
4:57 PM 75.2 °F - 71.6 °F 89% 29.99 in 1.8 mi NNE 19.6 mph 29.9 mph 0.10 in Rain Heavy Rain
5:07 PM 73.4 °F - 71.6 °F 94% 30.00 in 0.8 mi NNE 6.9 mph 19.6 mph 0.45 in Rain Heavy Rain
5:25 PM 75.2 °F - 71.6 °F 89% 29.96 in 10.0 mi WNW 11.5 mph 16.1 mph 0.81 in   Overcast
5:53 PM 75.0 °F - 73.0 °F 94% 29.94 in 10.0 mi West 6.9 mph - 0.81 in   Partly Cloudy
6:53 PM 75.9 °F - 73.0 °F 91% 29.95 in 10.0 mi Calm Calm - N/A   Scattered Clouds
7:53 PM 75.0 °F - 73.0 °F 94% 29.95 in 10.0 mi Calm Calm - N/A   Scattered Clouds
8:53 PM 75.0 °F - 73.0 °F 94% 29.96 in 10.0 mi Calm Calm - N/A   Clear
9:53 PM 73.9 °F - 73.0 °F 97% 29.98 in 10.0 mi Calm Calm - N/A   Clear
10:53 PM 75.0 °F - 73.0 °F 94% 29.99 in 10.0 mi Calm Calm - N/A   Clear
11:53 PM 73.9 °F - 72.0 °F 93% 29.99 in 8.0 mi Calm Calm - N/A   Clear